Weather History for Omak, WA

Change the Weather History Date:

Thursday, April 24, 2014

  Actual Average Record
Temperature  
Mean Temperature 52 °F 52 °F  
Max Temperature 62 °F 66 °F 89 °F (1977)
Min Temperature 42 °F 38 °F 19 °F (2002)
Degree Days  
Heating Degree Days 13 13  
Month to date heating degree days 371 375  
Since 1 July heating degree days 6111 5965  
Cooling Degree Days 0 0  
Month to date cooling degree days 0 0  
Year to date cooling degree days 0 0  
Growing Degree Days 2 (Base 50)    
Moisture  
Dew Point 41 °F    
Average Humidity 65    
Maximum Humidity 93    
Minimum Humidity 36    
Precipitation  
Precipitation 0.56 in 0.04 in 0.83 in (2003)
Month to date precipitation 1.18 0.84  
Year to date precipitation 4.16 5.00  
Sea Level Pressure  
Sea Level Pressure 29.71 in    
Wind  
Wind Speed 7 mph (South)    
Max Wind Speed 16 mph    
Max Gust Speed 22 mph    
Visibility 9 miles    
Events Rain    
T = Trace of Precipitation, MM = Missing Value Source: NWS Daily Summary

Daily Weather History Graph

Daily Weather History Graph

Search for Another Location

Airport:

Trip Planner

Search our weather history database for the weather conditions in past years. The results will help you decide how hot, cold, wet, or windy it might be!

Date:

Astronomy

Apr. 24, 2014 Rise Set
Actual Time 5:50 AM PDT 8:02 PM PDT
Civil Twilight 5:16 AM PDT 8:36 PM PDT
Nautical Twilight 4:34 AM PDT 9:19 PM PDT
Astronomical Twilight 3:46 AM PDT 10:07 PM PDT
Moon 3:29 AM PDT (4/24) 3:01 PM PDT (4/24)
Length of Visible Light 15h 20m
Length of Day
14h 11m
Waning Crescent, 23% of the Moon is Illuminated
Apr 24
Waning Crescent
Apr 28
New
May 6
First Quarter
May 14
Full
May 21
Last Quarter

Hourly Weather History & Observations

Time (PDT) Temp. Windchill Dew Point Humidity Pressure Visibility Wind Dir Wind Speed Gust Speed Precip Events Conditions
12:53 AM 48.0 °F - 41.0 °F 77% 29.75 in 10.0 mi SSE 9.2 mph - 0.00 in   Overcast
1:53 AM 46.9 °F - 43.0 °F 86% 29.73 in 8.0 mi South 6.9 mph - 0.04 in Rain Rain
2:02 AM 46.0 °F 42.5 °F 43.0 °F 89% 29.72 in 7.0 mi South 6.9 mph - 0.02 in Rain Rain
2:53 AM 46.0 °F - 44.1 °F 93% 29.71 in 6.0 mi Calm Calm - 0.10 in Rain Rain
3:53 AM 45.0 °F 42.6 °F 43.0 °F 93% 29.70 in 6.0 mi SSW 4.6 mph - 0.11 in Rain Rain
4:12 AM 46.0 °F 42.5 °F 42.1 °F 86% 29.69 in 5.0 mi SSE 6.9 mph - 0.04 in Rain Rain
4:53 AM 46.0 °F 43.9 °F 43.0 °F 89% 29.68 in 9.0 mi SSE 4.6 mph - 0.10 in Rain Light Rain
5:23 AM 46.0 °F 42.5 °F 43.0 °F 89% 29.67 in 9.0 mi SE 6.9 mph - 0.02 in Rain Light Rain
5:53 AM 46.0 °F 44.8 °F 43.0 °F 89% 29.67 in 8.0 mi Variable 3.5 mph - 0.06 in Rain Light Rain
6:53 AM 46.0 °F 42.5 °F 43.0 °F 89% 29.67 in 9.0 mi ESE 6.9 mph - 0.01 in Rain Light Rain
7:53 AM 48.0 °F - 45.0 °F 89% 29.67 in 2.5 mi SSE 12.7 mph - 0.03 in Rain Light Rain
8:02 AM 48.0 °F - 45.0 °F 89% 29.66 in 5.0 mi SE 9.2 mph - 0.00 in Rain Light Rain
8:53 AM 50.0 °F - 46.0 °F 86% 29.68 in 10.0 mi Variable 5.8 mph - 0.00 in   Overcast
9:26 AM 50.0 °F - 46.0 °F 86% 29.68 in 10.0 mi SSW 4.6 mph - N/A   Overcast
9:53 AM 50.0 °F - 46.0 °F 86% 29.69 in 10.0 mi South 5.8 mph - 0.01 in Rain Light Rain
10:53 AM 50.0 °F - 46.9 °F 89% 29.70 in 10.0 mi South 4.6 mph - 0.01 in   Overcast
11:53 AM 52.0 °F - 46.0 °F 80% 29.71 in 10.0 mi South 10.4 mph - N/A   Mostly Cloudy
12:01 PM 52.0 °F - 46.0 °F 80% 29.70 in 10.0 mi South 8.1 mph - N/A   Overcast
12:15 PM 55.0 °F - 46.9 °F 74% 29.70 in 10.0 mi South 11.5 mph - N/A   Scattered Clouds
12:53 PM 55.0 °F - 43.0 °F 64% 29.70 in 10.0 mi SSW 13.8 mph - N/A   Clear
1:53 PM 60.1 °F - 39.9 °F 47% 29.70 in 10.0 mi SSW 13.8 mph - N/A   Clear
2:53 PM 57.0 °F - 37.0 °F 47% 29.71 in 9.0 mi West 8.1 mph - 0.00 in Rain Light Rain
3:23 PM 54.0 °F - 39.0 °F 57% 29.71 in 2.5 mi SE 10.4 mph 21.9 mph 0.08 in Rain Heavy Rain
3:31 PM 54.0 °F - 39.0 °F 57% 29.71 in 7.0 mi SSE 8.1 mph - 0.09 in Rain Light Rain
3:53 PM 57.9 °F - 39.9 °F 51% 29.72 in 10.0 mi SSE 13.8 mph 19.6 mph 0.09 in   Partly Cloudy
4:53 PM 59.0 °F - 36.0 °F 42% 29.71 in 10.0 mi South 4.6 mph - N/A   Scattered Clouds
5:53 PM 57.9 °F - 33.1 °F 39% 29.73 in 10.0 mi SSW 6.9 mph - N/A   Partly Cloudy
6:53 PM 60.1 °F - 33.1 °F 36% 29.72 in 10.0 mi WNW 5.8 mph - N/A   Overcast
7:53 PM 54.0 °F - 37.0 °F 53% 29.73 in 10.0 mi South 4.6 mph - N/A   Overcast
8:53 PM 50.0 °F - 34.0 °F 54% 29.75 in 10.0 mi South 4.6 mph - N/A   Scattered Clouds
9:53 PM 44.1 °F 41.5 °F 34.0 °F 68% 29.77 in 10.0 mi NNE 4.6 mph - N/A   Scattered Clouds
10:53 PM 46.0 °F - 32.0 °F 58% 29.78 in 10.0 mi Calm Calm - N/A   Clear
11:53 PM 44.1 °F 39.0 °F 30.9 °F 60% 29.79 in 10.0 mi NW 9.2 mph - N/A   Clear